BEIDOU I2-S

Last updated on April 2, 2019, 3:15 a.m. UTC

1 40938U 15053A   19091.01102867 -.00000103  00000-0  00000+0 0  9997
2 40938  53.2699 289.2714 0047619 179.9135 180.0457  1.00282292 12942
UTC
Height (km)
Latitude
Longitude
Inclination
Orbital Period
UTC large
Height (km)
Speed (km/s)
/
Latitude / Longitude
Inclination (degrees)
Orbital Period (minutes)
Azimuth
Elevation
Range (km)
Doppler Factor
iOS Compass Heading
iOS Angle

Next 30 passes for location: Hong Kong

Rise time Rise Azimuth (degrees) Set time Set Azimuth (degrees) Duration Max altitude (degrees)

No matching passes for this satellites